Home > Weather > Arlington > Past weeks

Flag for U.S.A. Weather for the Past 2 Weeks in Arlington, Texas, U.S.A.

Now
52 °F

Sunny.


Feels Like: 46 °F
Forecast: 41 / 56 °F
Wind: 24 mph from Northwest

Location: Arlington Municipal Airport

Current Time: Feb 8, 2016 at 11:43:50 AM

Latest Report: Feb 8, 2016 at 10:53 AM


Visibility: 10 mi

Pressure: 30.37 "Hg

Humidity: 23%

Dew point: 15 °F

Location of ArlingtonLocation

Historic Weather in Arlington — Graph

°F

Arlington Temperature Yesterday

Maximum temperature yesterday: 66 °F (at 4:53 PM)
Minimum temperature yesterday: 31 °F (at 6:53 AM)
Average temperature yesterday: 48 °F

High & Low Weather Summary for the Past Weeks

 TemperatureHumidityPressure
High79 °F (Jan 29, 2:53 PM)89% (Feb 7, 6:53 AM)30.51 "Hg (Feb 7, 6:53 AM)
Low29 °F (Feb 4, 3:53 AM)16% (Feb 2, 2:53 PM)29.50 "Hg (Feb 1, 5:53 PM)
Average52 °F52%30.07 "Hg
* Reported Jan 24 9:53 AM — Feb 8 9:53 AM, Arlington, Weather by CustomWeather, © 2016

Note: Actual official high and low records may vary slightly from our data, if they occured in-between our weather recording intervals... More about our weather records

Advertising

Arlington Weather History for the Previous 24 Hours

 ConditionsComfort  
Time TempWeatherWind HumidityBarometerVisibility
9:53 AM
Mon, Feb 8
50 °FSunny.23 mph25%30.37 "Hg10 mi
8:53 AM47 °FSunny.22 mph29%30.36 "Hg10 mi
7:53 AM44 °FSunny.15 mph35%30.34 "Hg10 mi
6:53 AM43 °FClear.13 mph37%30.33 "Hg10 mi
5:53 AM45 °FClear.14 mph31%30.30 "Hg10 mi
4:53 AM45 °FClear.15 mph33%30.29 "Hg10 mi
3:53 AM46 °FClear.15 mph34%30.29 "Hg10 mi
2:53 AM48 °FClear.14 mph32%30.28 "Hg10 mi
1:53 AM50 °FClear.16 mph32%30.28 "Hg10 mi
12:53 AM51 °FClear.14 mph38%30.27 "Hg10 mi
11:53 PM
Sun, Feb 7
52 °FClear.16 mph41%30.27 "Hg10 mi
10:53 PM52 °FClear.13 mph45%30.24 "Hg10 mi
9:53 PM52 °FClear.10 mph45%30.21 "Hg10 mi
8:53 PM44 °FClear.3 mph63%30.19 "Hg10 mi
7:53 PM50 °FClear.No wind50%30.16 "Hg10 mi
6:53 PM58 °FClear.5 mph36%30.13 "Hg10 mi
5:53 PM61 °FSunny.6 mph31%30.10 "Hg10 mi
4:53 PM66 °FSunny.No wind27%30.09 "Hg10 mi
3:53 PM65 °FSunny.8 mph29%30.08 "Hg10 mi
2:53 PM64 °FSunny.5 mph30%30.09 "Hg10 mi
1:53 PM62 °FSunny.6 mph34%30.11 "Hg10 mi
12:53 PM60 °FSunny.13 mph38%30.13 "Hg10 mi
11:53 AM58 °FSunny.10 mph41%30.16 "Hg10 mi
Weather by CustomWeather, © 2016

See weather overviewHow to use our weather pages